Regional Weather Roundup
Issued by NWS

Home | Current Version | Previous Version | Graphics & Text | Print | Product List | Glossary On
Versions: 1 2 3 4 5 6 7 8 9 10 11 12 13 14 15 16 17 18 19 20 21 22 23 24 25 26 27 28 29 30 31 32 33 34 35 36 37 38 39 40 41 42 43 44 45 46 47 48 49 50
000
ASUS44 KMEG 281500
RWRTN
TENNESSEE HOURLY STATE WEATHER ROUNDUP
NATIONAL WEATHER SERVICE MEMPHIS TN
1000 AM CDT THU AUG 28 2014

TNZ002-004-019-021-049-052-054-088>092-281600-
WEST TENNESSEE

CITY           SKY/WX    TMP DP  RH WIND       PRES   REMARKS
MEMPHIS INTL   MOSUNNY   88  63  43 SW6       30.04S
NWS MEMPHIS      N/A     89 N/A N/A MISG        N/A
JACKSON        MOSUNNY   86  74  67 CALM      30.04S HX  94
DYERSBURG      PTSUNNY   84  64  51 CALM      30.05S
UNION CITY     SUNNY     84  75  74 CALM      30.03S HX  92
PARIS          SUNNY     84  72  65 CALM      30.05S
LEXINGTON      SUNNY     84  72  65 VRB3      30.04S
SAVANNAH       SUNNY     84  73  70 CALM      30.05S HX  91
$$

TNZ008-025-027-028-033-062-065-066-281600-
NORTH MIDDLE TENNESSEE

CITY           SKY/WX    TMP DP  RH WIND       PRES   REMARKS
NASHVILLE      SUNNY     85  71  63 VRB5      30.05F HX  90
CLARKSVILLE    SUNNY     83  73  72 VRB5      30.05S
COOKEVILLE     SUNNY     82  73  74 CALM      30.08F
CROSSVILLE     SUNNY     80  68  66 VRB5      30.14S
$$

TNZ061-075-076-078-094-096-097-281600-
SOUTH MIDDLE TENNESSEE

CITY           SKY/WX    TMP DP  RH WIND       PRES   REMARKS
TULLAHOMA      SUNNY     82  68  61 CALM      30.09S
WINCHESTER     SUNNY     82  70  65 CALM      30.08S
SHELBYVILLE    MOSUNNY   82  73  74 CALM      30.08S
$$

TNZ017-018-042-046-047-281600-
NORTHEAST TENNESSEE

CITY           SKY/WX    TMP DP  RH WIND       PRES   REMARKS
TRI CITIES     MOSUNNY   79  63  57 NE3       30.12S
ELIZABETHTON   SUNNY     79  64  61 CALM      30.12S
$$

TNZ012-013-036-069-073-074-281600-
CENTRAL EAST TENNESSEE

CITY           SKY/WX    TMP DP  RH WIND       PRES   REMARKS
KNOXVILLE      NOT AVBL
OAK RIDGE      SUNNY     81  67  62 CALM      30.10S
GATLINBURG     SUNNY     79  63  57 CALM      30.09S
$$

TNZ083-085-099-281600-
SOUTHEAST TENNESSEE

CITY           SKY/WX    TMP DP  RH WIND       PRES   REMARKS
CHATTANOOGA    MOSUNNY   81  64  56 CALM      30.08S
$$

SKY/WX REPORTED AS FAIR MEANS FEW OR NO CLOUDS BELOW
12 THOUSAND FEET.



USA.gov is the U.S. government's official web portal to all federal, state and local government web resources and services.